Franklin, PA

6:43 PM EST on December 15, 2019 (GMT -0500)
Venango Regional

Weather History for KFKL - August, 2019

Change the Weather History Date:

Thursday, August 22, 2019

  Actual Average Record
Temperature  
Mean Temperature 65 °F -  
Max Temperature 70 °F 78 °F 94 °F (1936)
Min Temperature 60 °F 53 °F 42 °F (1950)
Growing Degree Days 15 (Base 50)    
Moisture  
Dew Point 63 °F    
Average Humidity 88    
Maximum Humidity 100    
Minimum Humidity 65    
Precipitation  
Precipitation 0.06 in - - ()
Sea Level Pressure  
Sea Level Pressure 29.99 in    
Wind  
Wind Speed 5 mph (WNW)    
Max Wind Speed 9 mph    
Max Gust Speed -    
Visibility 9 miles    
Events Rain    
Averages and records for this station are not official NWS values.
T = Trace of Precipitation, MM = Missing Value Source: NWS Daily Summary

Daily Weather History Graph

Daily Weather History Graph

Search for Another Location

Airport or City:

Astronomy

Aug. 22, 2019 Rise Set
Actual Time 6:35 AM EDT 8:08 PM EDT
Civil Twilight 6:06 AM EDT 8:37 PM EDT
Nautical Twilight 5:30 AM EDT 9:12 PM EDT
Astronomical Twilight 4:53 AM EDT 9:50 PM EDT
Moon 11:53 PM EDT (8/22) 1:13 PM EDT (8/22)
Length of Visible Light 14h 31m
Length of Day
13h 33m
Waning Gibbous, 60% of the Moon is Illuminated
Aug 22
Waning Gibbous
Aug 23
Last Quarter
Aug 30
New
Sep 5
First Quarter
Sep 14
Full

Hourly Weather History & Observations

Time (EDT) Temp. Dew Point Humidity Pressure Visibility Wind Dir Wind Speed Gust Speed Precip Events Conditions
12:56 AM 66.9 °F 66.9 °F 100% 29.95 in 8.0 mi SW 4.6 mph - N/A   Scattered Clouds
1:56 AM 66.9 °F 66.9 °F 100% 29.93 in 8.0 mi SW 5.8 mph - N/A   Clear
2:56 AM 66.9 °F 66.0 °F 97% 29.92 in 10.0 mi WSW 6.9 mph - N/A   Partly Cloudy
3:56 AM 68.0 °F 66.9 °F 96% 29.93 in 9.0 mi WSW 9.2 mph - N/A   Partly Cloudy
4:56 AM 68.0 °F 66.9 °F 96% 29.93 in 10.0 mi West 6.9 mph - N/A   Partly Cloudy
5:46 AM 68.0 °F 66.2 °F 94% 29.96 in 8.0 mi West 3.5 mph - N/A   Overcast
5:56 AM 68.0 °F 66.9 °F 96% 29.93 in 7.0 mi Calm Calm - N/A   Overcast
6:18 AM 68.0 °F 66.2 °F 94% 29.97 in 7.0 mi West 5.8 mph - N/A   Overcast
6:39 AM 68.0 °F 66.2 °F 94% 29.98 in 4.0 mi West 3.5 mph - N/A   Overcast
6:56 AM 68.0 °F 66.9 °F 96% 29.96 in 10.0 mi WNW 6.9 mph - 0.00 in Rain Light Rain
7:12 AM 68.0 °F 66.2 °F 94% 29.98 in 10.0 mi WNW 4.6 mph - 0.00 in   Mostly Cloudy
7:48 AM 68.0 °F 66.2 °F 94% 29.98 in 10.0 mi NW 3.5 mph - 0.00 in   Overcast
7:56 AM 68.0 °F 66.0 °F 93% 29.96 in 10.0 mi Calm Calm - 0.00 in   Mostly Cloudy
8:23 AM 68.0 °F 66.2 °F 94% 29.99 in 10.0 mi West 6.9 mph - N/A   Mostly Cloudy
8:52 AM 68.0 °F 66.2 °F 94% 29.99 in 10.0 mi West 5.8 mph - N/A   Overcast
8:56 AM 68.0 °F 66.0 °F 93% 29.97 in 10.0 mi West 6.9 mph - N/A   Overcast
9:56 AM 68.0 °F 66.9 °F 96% 29.98 in 9.0 mi SW 3.5 mph - 0.01 in Rain Light Rain
10:05 AM 68.0 °F 66.2 °F 94% 30.00 in 10.0 mi WSW 4.6 mph - 0.00 in   Overcast
10:17 AM 69.8 °F 66.2 °F 88% 30.00 in 10.0 mi WSW 5.8 mph - 0.00 in   Overcast
10:24 AM 69.8 °F 66.2 °F 88% 30.01 in 10.0 mi West 5.8 mph - 0.00 in   Overcast
10:32 AM 69.8 °F 66.2 °F 88% 30.01 in 10.0 mi West 4.6 mph - 0.00 in   Overcast
10:41 AM 69.8 °F 66.2 °F 88% 30.01 in 10.0 mi West 4.6 mph - 0.00 in   Overcast
10:56 AM 70.0 °F 66.9 °F 90% 29.99 in 10.0 mi West 5.8 mph - 0.00 in   Overcast
11:10 AM 69.8 °F 66.2 °F 88% 30.02 in 10.0 mi West 9.2 mph - N/A   Overcast
11:56 AM 68.0 °F 66.0 °F 93% 30.01 in 7.0 mi WNW 8.1 mph - 0.01 in Rain Light Rain
11:58 AM 68.0 °F 66.2 °F 94% 30.02 in 6.0 mi North 8.1 mph - 0.00 in Rain Rain
12:08 PM 66.2 °F 64.4 °F 94% 30.03 in 9.0 mi NNE 5.8 mph - 0.00 in Rain Light Rain
12:54 PM 64.4 °F 62.6 °F 94% 30.02 in 10.0 mi North 4.6 mph - 0.04 in Rain Light Rain
12:56 PM 64.9 °F 63.0 °F 93% 30.00 in 10.0 mi Variable 4.6 mph - 0.04 in Rain Light Rain
1:12 PM 64.4 °F 62.6 °F 94% 30.01 in 10.0 mi North 5.8 mph - 0.00 in   Overcast
1:36 PM 68.0 °F 64.4 °F 88% 30.00 in 10.0 mi NNE 9.2 mph - 0.00 in   Mostly Cloudy
1:56 PM 66.0 °F 62.1 °F 87% 29.99 in 10.0 mi Variable 4.6 mph - 0.00 in   Mostly Cloudy
2:34 PM 66.2 °F 62.6 °F 88% 30.01 in 10.0 mi NNW 4.6 mph - 0.00 in Rain Light Rain
2:56 PM 64.9 °F 60.1 °F 84% 30.00 in 10.0 mi Variable 3.5 mph - 0.00 in Rain Light Rain
3:56 PM 66.9 °F 60.1 °F 79% 29.98 in 10.0 mi Variable 4.6 mph - 0.00 in   Overcast
4:56 PM 68.0 °F 57.9 °F 70% 29.99 in 10.0 mi NNW 5.8 mph - N/A   Overcast
5:03 PM 68.0 °F 57.2 °F 68% 30.01 in 10.0 mi NNE 8.1 mph - N/A   Overcast
5:15 PM 68.0 °F 57.2 °F 68% 30.01 in 10.0 mi Variable 3.5 mph - N/A   Overcast
5:26 PM 66.2 °F 55.4 °F 68% 30.01 in 10.0 mi Variable 3.5 mph - N/A   Overcast
5:56 PM 68.0 °F 55.9 °F 65% 30.00 in 10.0 mi Variable 4.6 mph - N/A   Overcast
6:56 PM 66.9 °F 57.9 °F 73% 30.00 in 10.0 mi Variable 4.6 mph - N/A   Mostly Cloudy
7:56 PM 64.0 °F 57.0 °F 78% 30.01 in 10.0 mi Calm Calm - N/A   Mostly Cloudy
8:56 PM 62.1 °F 57.0 °F 84% 30.02 in 10.0 mi Calm Calm - N/A   Mostly Cloudy
9:56 PM 62.1 °F 55.9 °F 80% 30.04 in 10.0 mi Variable 3.5 mph - N/A   Overcast
10:56 PM 60.1 °F 55.9 °F 86% 30.04 in 10.0 mi NNE 3.5 mph - N/A   Scattered Clouds
11:56 PM 61.0 °F 55.0 °F 81% 30.05 in 10.0 mi Calm Calm - N/A   Overcast